RYR7 LFOB-EICK

Flight info

Callsign RYR7
Flight time N/A
Altitude 38000
Route LGL UN502 JSY DCT LIZAD DCT NAKID DCT EVCOR N160 LEDGO DCT ERTER ERTER1R
Aircraft B738/M-SDE2E3FGHIRWXY/LB1

Departure

Time 2026-04-22 07:11
Airport Beauvais-Tillé airport (LFOB)

Arrival

Time N/A
Airport Cork International Airport (EICK)
Time Latitude Longitude Altitude Speed Heading
2026-04-22 06:46 49.45827 2.11116 357 ft 0 kts 33°
2026-04-22 07:04 49.45812 2.11102 358 ft 4 kts 22°
2026-04-22 07:04 49.45787 2.11093 356 ft 4 kts 353°
2026-04-22 07:05 49.45763 2.11107 347 ft 4 kts 319°
2026-04-22 07:05 49.45748 2.11133 351 ft 1 kts 303°
2026-04-22 07:05 49.45747 2.11133 351 ft 0 kts 303°
2026-04-22 07:07 49.45748 2.11131 351 ft 1 kts 303°
2026-04-22 07:07 49.45754 2.11118 353 ft 4 kts 304°
2026-04-22 07:08 49.45777 2.11066 351 ft 8 kts 304°
2026-04-22 07:08 49.45749 2.10958 349 ft 12 kts 210°
2026-04-22 07:08 49.45665 2.10888 351 ft 14 kts 209°
2026-04-22 07:08 49.45665 2.10763 353 ft 15 kts 308°
2026-04-22 07:09 49.45707 2.10672 356 ft 17 kts 304°
2026-04-22 07:09 49.45782 2.10510 358 ft 19 kts 319°
2026-04-22 07:09 49.45849 2.10446 359 ft 0 kts 311°
2026-04-22 07:09 49.45849 2.10444 359 ft 1 kts 292°
2026-04-22 07:10 49.45817 2.10419 360 ft 7 kts 149°
2026-04-22 07:10 49.45798 2.10461 357 ft 8 kts 120°
2026-04-22 07:10 49.45764 2.10543 361 ft 11 kts 124°
2026-04-22 07:10 49.45598 2.10926 353 ft 79 kts 123°
2026-04-22 07:11 49.45164 2.11922 334 ft 141 kts 125°
2026-04-22 07:11 49.44604 2.13219 823 ft 150 kts 117°
2026-04-22 07:11 49.44309 2.14758 1464 ft 155 kts 78°
2026-04-22 07:11 49.44903 2.16059 2576 ft 142 kts 50°
2026-04-22 07:12 49.45696 2.16845 3538 ft 137 kts 36°
2026-04-22 07:12 49.46558 2.17676 3922 ft 160 kts 43°
2026-04-22 07:12 49.47771 2.18170 4197 ft 210 kts 360°
2026-04-22 07:12 49.49156 2.17053 4403 ft 251 kts 318°
2026-04-22 07:13 49.50084 2.14619 4619 ft 281 kts 286°
2026-04-22 07:13 49.50182 2.11540 5113 ft 295 kts 261°
2026-04-22 07:13 49.49840 2.08419 6004 ft 296 kts 258°
2026-04-22 07:13 49.49441 2.05265 6825 ft 300 kts 252°
2026-04-22 07:14 49.48469 2.02526 7581 ft 296 kts 223°
2026-04-22 07:14 49.46906 2.00504 8475 ft 291 kts 210°
2026-04-22 07:14 49.45190 1.98809 9247 ft 296 kts 208°
2026-04-22 07:14 49.43432 1.97134 10043 ft 300 kts 208°
2026-04-22 07:15 49.41640 1.95394 10647 ft 310 kts 210°
2026-04-22 07:15 49.39758 1.93541 10823 ft 335 kts 210°
2026-04-22 07:15 49.37736 1.91531 11020 ft 357 kts 211°
2026-04-22 07:15 49.35607 1.89407 11485 ft 368 kts 211°
2026-04-22 07:16 49.33463 1.87266 12161 ft 373 kts 212°
2026-04-22 07:16 49.31274 1.85082 12899 ft 377 kts 212°
2026-04-22 07:16 49.29045 1.82860 13610 ft 382 kts 212°
2026-04-22 07:16 49.26831 1.80658 14364 ft 385 kts 213°
2026-04-22 07:17 49.24572 1.78416 15124 ft 387 kts 214°
2026-04-22 07:17 49.22390 1.75955 15778 ft 389 kts 228°
2026-04-22 07:17 49.20853 1.72652 16593 ft 384 kts 244°
2026-04-22 07:17 49.19597 1.69036 17459 ft 383 kts 246°
2026-04-22 07:18 49.18374 1.65439 18201 ft 385 kts 246°
2026-04-22 07:18 49.17131 1.61792 18877 ft 388 kts 247°
2026-04-22 07:18 49.15871 1.58128 19487 ft 391 kts 246°
2026-04-22 07:18 49.14589 1.54438 20097 ft 394 kts 246°
2026-04-22 07:19 49.13307 1.50769 20700 ft 396 kts 246°
2026-04-22 07:19 49.11994 1.47033 21310 ft 399 kts 246°
2026-04-22 07:19 49.10685 1.43316 21902 ft 402 kts 246°
2026-04-22 07:19 49.09356 1.39550 22464 ft 404 kts 246°
2026-04-22 07:20 49.08017 1.35762 23033 ft 407 kts 246°
2026-04-22 07:20 49.06657 1.31916 23544 ft 410 kts 246°
2026-04-22 07:20 49.05293 1.28064 24013 ft 414 kts 245°
2026-04-22 07:20 49.03936 1.24242 24470 ft 416 kts 245°
2026-04-22 07:21 49.02556 1.20348 24967 ft 417 kts 246°
2026-04-22 07:21 49.01187 1.16413 25438 ft 418 kts 246°
2026-04-22 07:21 48.99844 1.12517 25881 ft 420 kts 246°
2026-04-22 07:21 48.98483 1.08563 26311 ft 422 kts 246°
2026-04-22 07:22 48.97123 1.04621 26744 ft 424 kts 246°
2026-04-22 07:22 48.95743 1.00632 27168 ft 427 kts 246°
2026-04-22 07:22 48.94350 0.96619 27569 ft 428 kts 246°
2026-04-22 07:22 48.92960 0.92624 27982 ft 430 kts 246°
2026-04-22 07:23 48.91549 0.88577 28374 ft 432 kts 246°
2026-04-22 07:23 48.90133 0.84522 28713 ft 435 kts 246°
2026-04-22 07:23 48.88703 0.80435 29054 ft 437 kts 246°
2026-04-22 07:23 48.87283 0.76381 29420 ft 439 kts 246°
2026-04-22 07:24 48.85835 0.72253 29797 ft 441 kts 246°
2026-04-22 07:24 48.84406 0.68185 30172 ft 442 kts 246°
2026-04-22 07:24 48.82958 0.64069 30634 ft 439 kts 246°
2026-04-22 07:24 48.81521 0.59999 31158 ft 434 kts 246°
2026-04-22 07:25 48.80264 0.55863 31630 ft 426 kts 257°
2026-04-22 07:25 48.79806 0.51502 32021 ft 419 kts 270°
2026-04-22 07:25 48.80038 0.47117 32420 ft 415 kts 283°
2026-04-22 07:25 48.80743 0.42932 32836 ft 413 kts 285°
2026-04-22 07:26 48.81533 0.38717 33090 ft 415 kts 286°
2026-04-22 07:26 48.82345 0.34469 33347 ft 417 kts 286°
2026-04-22 07:26 48.83133 0.30293 33809 ft 414 kts 285°
2026-04-22 07:26 48.83913 0.26084 34307 ft 410 kts 285°
2026-04-22 07:27 48.84675 0.21907 34633 ft 409 kts 285°
2026-04-22 07:27 48.85421 0.17766 34828 ft 411 kts 285°
2026-04-22 07:27 48.86175 0.13550 35044 ft 412 kts 285°
2026-04-22 07:27 48.86925 0.09332 35360 ft 411 kts 285°
2026-04-22 07:28 48.88405 0.00985 35924 ft 411 kts 285°
2026-04-22 07:28 48.89150 -0.03222 36134 ft 412 kts 285°
2026-04-22 07:28 48.89887 -0.07401 36361 ft 412 kts 285°
2026-04-22 07:29 48.90627 -0.11606 36669 ft 411 kts 285°
2026-04-22 07:29 48.91367 -0.15819 36974 ft 410 kts 285°
2026-04-22 07:29 48.92094 -0.19964 37203 ft 410 kts 285°
2026-04-22 07:29 48.92827 -0.24159 37414 ft 411 kts 285°
2026-04-22 07:30 48.93556 -0.28380 37630 ft 411 kts 285°
2026-04-22 07:30 48.94265 -0.32556 37914 ft 410 kts 285°
2026-04-22 07:30 48.94975 -0.36767 38157 ft 410 kts 285°
2026-04-22 07:30 48.95686 -0.41006 38141 ft 414 kts 285°
2026-04-22 07:31 48.97100 -0.49445 38156 ft 411 kts 285°
2026-04-22 07:31 48.98507 -0.57869 38152 ft 408 kts 284°
2026-04-22 07:32 48.99892 -0.66191 38155 ft 406 kts 284°
2026-04-22 07:32 49.01273 -0.74530 38152 ft 404 kts 284°
2026-04-22 07:33 49.02637 -0.82809 38155 ft 404 kts 284°
2026-04-22 07:33 49.03994 -0.91085 38147 ft 404 kts 284°
2026-04-22 07:34 49.05352 -0.99412 38147 ft 405 kts 284°
2026-04-22 07:34 49.06711 -1.07778 38139 ft 407 kts 284°
2026-04-22 07:35 49.08068 -1.16176 38155 ft 410 kts 284°
2026-04-22 07:35 49.09443 -1.24677 38154 ft 418 kts 284°
2026-04-22 07:36 49.10850 -1.33360 38139 ft 421 kts 284°
2026-04-22 07:36 49.12247 -1.42022 38137 ft 421 kts 284°
2026-04-22 07:37 49.13633 -1.50676 38139 ft 421 kts 283°
2026-04-22 07:37 49.15020 -1.59375 38135 ft 420 kts 283°
2026-04-22 07:38 49.16388 -1.68006 38140 ft 418 kts 283°
2026-04-22 07:38 49.17754 -1.76673 38142 ft 417 kts 283°
2026-04-22 07:39 49.19099 -1.85244 38139 ft 416 kts 283°
2026-04-22 07:39 49.20437 -1.93819 38134 ft 415 kts 283°
2026-04-22 07:40 49.21773 -2.02420 38132 ft 414 kts 283°
2026-04-22 07:40 49.23155 -2.10935 38142 ft 413 kts 284°
2026-04-22 07:41 49.24628 -2.19411 38140 ft 413 kts 284°
2026-04-22 07:41 49.26106 -2.27941 38137 ft 413 kts 284°
2026-04-22 07:42 49.27554 -2.36408 38136 ft 413 kts 284°
2026-04-22 07:42 49.29001 -2.44947 38131 ft 413 kts 284°
2026-04-22 07:43 49.30431 -2.53441 38134 ft 414 kts 283°
2026-04-22 07:43 49.31868 -2.62018 38131 ft 414 kts 283°
2026-04-22 07:44 49.33293 -2.70561 38126 ft 416 kts 283°
2026-04-22 07:44 49.34722 -2.79178 38135 ft 417 kts 283°
2026-04-22 07:45 49.36140 -2.87767 38130 ft 418 kts 283°
2026-04-22 07:45 49.37570 -2.96477 38128 ft 419 kts 283°
2026-04-22 07:46 49.38979 -3.05103 38119 ft 419 kts 283°
2026-04-22 07:46 49.40396 -3.13821 38126 ft 420 kts 283°
2026-04-22 07:47 49.41799 -3.22497 38122 ft 420 kts 283°
2026-04-22 07:47 49.43204 -3.31231 38126 ft 420 kts 282°
2026-04-22 07:48 49.44589 -3.39885 38119 ft 420 kts 282°
2026-04-22 07:48 49.45983 -3.48640 38123 ft 420 kts 282°
2026-04-22 07:49 49.47357 -3.57321 38129 ft 419 kts 282°
2026-04-22 07:49 49.48726 -3.66010 38130 ft 419 kts 282°
2026-04-22 07:50 49.50094 -3.74748 38117 ft 419 kts 282°
2026-04-22 07:50 49.51452 -3.83461 38121 ft 420 kts 282°
2026-04-22 07:51 49.52813 -3.92246 38119 ft 420 kts 282°
2026-04-22 07:51 49.54157 -4.00961 38108 ft 420 kts 282°
2026-04-22 07:52 49.55507 -4.09767 38115 ft 421 kts 281°
2026-04-22 07:52 49.56838 -4.18494 38118 ft 421 kts 281°
2026-04-22 07:53 49.58177 -4.27321 38124 ft 421 kts 281°
2026-04-22 07:53 49.60196 -4.35791 38110 ft 425 kts 296°
2026-04-22 07:54 49.63426 -4.43440 38115 ft 428 kts 300°
2026-04-22 07:54 49.66756 -4.51117 38116 ft 428 kts 300°
2026-04-22 07:55 49.70025 -4.58790 38101 ft 430 kts 300°
2026-04-22 07:55 49.73474 -4.66388 38123 ft 433 kts 303°
2026-04-22 07:56 49.77235 -4.73678 38107 ft 435 kts 304°
2026-04-22 07:56 49.81022 -4.80942 38111 ft 435 kts 305°
2026-04-22 07:57 49.84171 -4.87055 38119 ft 435 kts 304°
2026-04-22 07:57 49.88548 -4.95638 38122 ft 436 kts 304°
2026-04-22 07:58 49.91671 -5.01800 38128 ft 435 kts 304°
2026-04-22 07:58 49.95431 -5.09235 38099 ft 436 kts 305°
2026-04-22 07:59 49.99170 -5.16650 38081 ft 438 kts 304°
2026-04-22 07:59 50.02929 -5.24124 38071 ft 438 kts 305°
2026-04-22 08:00 50.06658 -5.31558 38085 ft 437 kts 303°
2026-04-22 08:00 50.10397 -5.39035 38072 ft 438 kts 304°
2026-04-22 08:01 50.14129 -5.46517 38122 ft 438 kts 303°
2026-04-22 08:01 50.17889 -5.54080 38088 ft 440 kts 304°
2026-04-22 08:02 50.21629 -5.61622 38106 ft 441 kts 303°
2026-04-22 08:02 50.25381 -5.69209 38092 ft 441 kts 304°
2026-04-22 08:03 50.29118 -5.76789 38113 ft 442 kts 304°
2026-04-22 08:03 50.32862 -5.84405 38120 ft 442 kts 303°
2026-04-22 08:04 50.36628 -5.92095 38124 ft 443 kts 304°
2026-04-22 08:04 50.40371 -5.99753 38120 ft 444 kts 304°
2026-04-22 08:05 50.44110 -6.07424 38137 ft 446 kts 304°
2026-04-22 08:05 50.47894 -6.15209 38148 ft 447 kts 303°
2026-04-22 08:06 50.51653 -6.22969 38145 ft 449 kts 303°
2026-04-22 08:06 50.55466 -6.30834 37545 ft 455 kts 304°
2026-04-22 08:07 50.57374 -6.34767 36979 ft 451 kts 303°
2026-04-22 08:07 50.59232 -6.38679 36405 ft 449 kts 303°
2026-04-22 08:07 50.61115 -6.42631 35773 ft 449 kts 302°
2026-04-22 08:07 50.62997 -6.46554 35263 ft 447 kts 302°
2026-04-22 08:08 50.64876 -6.50466 34815 ft 444 kts 302°
2026-04-22 08:08 50.66708 -6.54288 34378 ft 441 kts 302°
2026-04-22 08:08 50.68565 -6.58170 33862 ft 439 kts 303°
2026-04-22 08:08 50.70399 -6.62012 33378 ft 437 kts 302°
2026-04-22 08:09 50.72201 -6.65795 32916 ft 434 kts 302°
2026-04-22 08:09 50.74009 -6.69599 32469 ft 431 kts 303°
2026-04-22 08:09 50.75809 -6.73395 32039 ft 428 kts 303°
2026-04-22 08:09 50.77596 -6.77164 31614 ft 426 kts 304°
2026-04-22 08:10 50.79357 -6.80881 31165 ft 424 kts 303°
2026-04-22 08:10 50.81120 -6.84609 30741 ft 421 kts 303°
2026-04-22 08:10 50.82873 -6.88323 30307 ft 420 kts 304°
2026-04-22 08:10 50.84627 -6.92047 29857 ft 426 kts 303°
2026-04-22 08:11 50.86405 -6.95830 29387 ft 433 kts 304°
2026-04-22 08:11 50.88206 -6.99660 28873 ft 430 kts 304°
2026-04-22 08:11 50.89990 -7.03456 28414 ft 426 kts 304°
2026-04-22 08:11 50.91733 -7.07174 27965 ft 422 kts 304°
2026-04-22 08:12 50.93494 -7.10896 27527 ft 420 kts 307°
2026-04-22 08:12 50.95447 -7.14288 26943 ft 422 kts 314°
2026-04-22 08:12 50.97608 -7.17517 26296 ft 426 kts 316°
2026-04-22 08:12 50.99796 -7.20678 25873 ft 422 kts 316°
2026-04-22 08:13 51.01958 -7.23802 25255 ft 425 kts 316°
2026-04-22 08:13 51.04131 -7.26979 24867 ft 421 kts 316°
2026-04-22 08:13 51.06267 -7.30135 24547 ft 415 kts 315°
2026-04-22 08:13 51.08369 -7.33267 24029 ft 416 kts 316°
2026-04-22 08:14 51.10465 -7.36406 23756 ft 409 kts 315°
2026-04-22 08:14 51.12504 -7.39467 23341 ft 405 kts 315°
2026-04-22 08:14 51.14548 -7.42542 22771 ft 406 kts 315°
2026-04-22 08:14 51.16601 -7.45636 22332 ft 403 kts 315°
2026-04-22 08:15 51.18646 -7.48717 21818 ft 402 kts 315°
2026-04-22 08:15 51.20695 -7.51807 21242 ft 405 kts 315°
2026-04-22 08:15 51.22715 -7.54857 20765 ft 403 kts 315°
2026-04-22 08:15 51.24753 -7.57939 20259 ft 403 kts 315°
2026-04-22 08:16 51.26789 -7.61022 19771 ft 402 kts 315°
2026-04-22 08:16 51.28804 -7.64077 19359 ft 399 kts 315°
2026-04-22 08:16 51.30805 -7.67115 18924 ft 397 kts 315°
2026-04-22 08:16 51.32808 -7.70159 18481 ft 397 kts 315°
2026-04-22 08:17 51.34814 -7.73214 18021 ft 394 kts 315°
2026-04-22 08:17 51.36776 -7.76205 17584 ft 392 kts 315°
2026-04-22 08:17 51.38754 -7.79224 17164 ft 389 kts 315°
2026-04-22 08:17 51.40713 -7.82217 16765 ft 386 kts 316°
2026-04-22 08:18 51.42658 -7.85194 16342 ft 384 kts 316°
2026-04-22 08:18 51.44560 -7.88107 15960 ft 381 kts 316°
2026-04-22 08:18 51.46471 -7.91038 15564 ft 378 kts 316°
2026-04-22 08:18 51.48376 -7.93964 15148 ft 376 kts 316°
2026-04-22 08:19 51.50243 -7.96834 14752 ft 375 kts 316°
2026-04-22 08:19 51.52130 -7.99737 14356 ft 373 kts 317°
2026-04-22 08:19 51.54015 -8.02642 13932 ft 373 kts 317°
2026-04-22 08:19 51.55878 -8.05461 13519 ft 370 kts 321°
2026-04-22 08:20 51.58069 -8.07551 13091 ft 364 kts 340°
2026-04-22 08:20 51.60398 -8.09143 12692 ft 361 kts 340°
2026-04-22 08:20 51.62706 -8.10722 12296 ft 359 kts 340°
2026-04-22 08:20 51.64973 -8.12292 11913 ft 357 kts 340°
2026-04-22 08:21 51.67259 -8.13895 11531 ft 354 kts 340°
2026-04-22 08:21 51.69506 -8.15485 11155 ft 352 kts 339°
2026-04-22 08:21 51.71733 -8.17070 10790 ft 350 kts 339°
2026-04-22 08:21 51.73926 -8.18635 10576 ft 343 kts 340°
2026-04-22 08:22 51.76086 -8.20183 10414 ft 334 kts 339°
2026-04-22 08:22 51.77486 -8.21185 10319 ft 329 kts 339°
2026-04-22 08:22 51.80225 -8.23148 10144 ft 318 kts 339°
2026-04-22 08:22 51.82230 -8.24585 9830 ft 317 kts 340°
2026-04-22 08:23 51.84257 -8.26038 9497 ft 316 kts 340°
2026-04-22 08:23 51.86262 -8.27478 9184 ft 315 kts 340°
2026-04-22 08:23 51.88246 -8.28906 8876 ft 314 kts 340°
2026-04-22 08:23 51.90246 -8.30347 8533 ft 314 kts 340°
2026-04-22 08:24 51.92248 -8.31790 8246 ft 313 kts 340°
2026-04-22 08:24 51.94244 -8.33231 7931 ft 313 kts 340°
2026-04-22 08:24 51.96205 -8.34648 7658 ft 311 kts 340°
2026-04-22 08:24 51.98189 -8.36081 7336 ft 311 kts 340°
2026-04-22 08:25 52.00170 -8.37515 7050 ft 310 kts 340°
2026-04-22 08:25 52.02141 -8.38944 6759 ft 309 kts 341°
2026-04-22 08:25 52.04066 -8.40391 6477 ft 309 kts 334°
2026-04-22 08:25 52.05661 -8.42755 6232 ft 311 kts 303°
2026-04-22 08:26 52.06450 -8.45979 5918 ft 307 kts 274°
2026-04-22 08:26 52.06375 -8.49355 5557 ft 299 kts 249°
2026-04-22 08:26 52.05726 -8.52467 5525 ft 284 kts 242°
2026-04-22 08:26 52.05037 -8.55429 5370 ft 278 kts 242°
2026-04-22 08:27 52.04325 -8.58342 5119 ft 273 kts 235°
2026-04-22 08:27 52.03224 -8.60672 4856 ft 252 kts 207°
2026-04-22 08:27 52.01694 -8.61520 4608 ft 223 kts 169°
2026-04-22 08:27 52.00341 -8.60668 4342 ft 203 kts 139°
2026-04-22 08:28 51.99235 -8.59322 4086 ft 192 kts 139°
2026-04-22 08:28 51.98226 -8.57994 3770 ft 181 kts 142°
2026-04-22 08:28 51.97158 -8.57041 3498 ft 172 kts 147°
2026-04-22 08:28 51.96110 -8.56251 3175 ft 160 kts 149°
2026-04-22 08:29 51.95134 -8.55633 3001 ft 138 kts 150°
2026-04-22 08:29 51.94302 -8.55149 2767 ft 126 kts 151°
2026-04-22 08:29 51.93426 -8.54749 2212 ft 134 kts 153°
2026-04-22 08:29 51.92485 -8.54352 1828 ft 147 kts 148°
2026-04-22 08:30 51.91423 -8.53681 1931 ft 169 kts 148°
2026-04-22 08:30 51.90375 -8.53042 1607 ft 159 kts 149°
2026-04-22 08:30 51.89348 -8.52440 1205 ft 154 kts 150°
2026-04-22 08:30 51.88395 -8.51858 1086 ft 133 kts 148°
2026-04-22 08:31 51.87569 -8.51329 1012 ft 126 kts 146°
2026-04-22 08:31 51.86754 -8.50775 927 ft 127 kts 145°
2026-04-22 08:31 51.85097 -8.49678 633 ft 120 kts 150°
2026-04-22 08:32 51.84295 -8.49267 618 ft 132 kts 147°
2026-04-22 08:32 51.83334 -8.48825 1445 ft 158 kts 156°
2026-04-22 08:32 51.82153 -8.48385 2273 ft 181 kts 156°
2026-04-22 08:32 51.80897 -8.47871 2888 ft 204 kts 157°
2026-04-22 08:33 51.79519 -8.47249 2805 ft 202 kts 156°
2026-04-22 08:33 51.78353 -8.46253 2705 ft 183 kts 131°
2026-04-22 08:33 51.77744 -8.44565 2705 ft 170 kts 104°
2026-04-22 08:33 51.77834 -8.42691 2700 ft 171 kts 76°
2026-04-22 08:34 51.78605 -8.41151 2732 ft 190 kts 46°
2026-04-22 08:34 51.79884 -8.40329 2711 ft 210 kts 18°
2026-04-22 08:34 51.81374 -8.40395 2715 ft 221 kts 356°
2026-04-22 08:34 51.82852 -8.41274 2746 ft 227 kts 346°
2026-04-22 08:35 51.84334 -8.42240 2731 ft 230 kts 347°
2026-04-22 08:35 51.85811 -8.43194 2713 ft 230 kts 347°
2026-04-22 08:35 51.87274 -8.44142 2718 ft 221 kts 347°
2026-04-22 08:35 51.88691 -8.45072 2734 ft 218 kts 347°
2026-04-22 08:36 51.90095 -8.45998 2732 ft 217 kts 347°
2026-04-22 08:36 51.91477 -8.46907 2697 ft 218 kts 347°
2026-04-22 08:36 51.92882 -8.47820 2705 ft 214 kts 348°
2026-04-22 08:36 51.94282 -8.48400 2716 ft 207 kts 359°
2026-04-22 08:37 51.95699 -8.48909 2716 ft 209 kts 358°
2026-04-22 08:37 51.97114 -8.49424 2725 ft 210 kts 358°
2026-04-22 08:37 51.98549 -8.49948 2708 ft 212 kts 358°
2026-04-22 08:37 51.99994 -8.50478 2705 ft 211 kts 358°
2026-04-22 08:38 52.01425 -8.51003 2709 ft 211 kts 358°
2026-04-22 08:38 52.02841 -8.51524 2712 ft 210 kts 358°
2026-04-22 08:38 52.04273 -8.52048 2735 ft 210 kts 358°
2026-04-22 08:38 52.05710 -8.52576 2734 ft 210 kts 358°
2026-04-22 08:39 52.07142 -8.53111 2741 ft 210 kts 358°
2026-04-22 08:39 52.08552 -8.53640 2750 ft 211 kts 358°
2026-04-22 08:39 52.09985 -8.54181 2762 ft 212 kts 354°
2026-04-22 08:39 52.11239 -8.55527 2731 ft 223 kts 304°
2026-04-22 08:40 52.11614 -8.57839 2747 ft 209 kts 253°
2026-04-22 08:40 52.11027 -8.59745 2819 ft 187 kts 216°
2026-04-22 08:40 52.10092 -8.61208 2725 ft 174 kts 193°
2026-04-22 08:40 52.09027 -8.61676 2754 ft 154 kts 175°
2026-04-22 08:41 52.08009 -8.61617 2743 ft 145 kts 160°
2026-04-22 08:41 52.06997 -8.61395 2738 ft 146 kts 158°
2026-04-22 08:41 52.05970 -8.61175 2730 ft 151 kts 164°
2026-04-22 08:41 52.04921 -8.61039 2746 ft 150 kts 162°
2026-04-22 08:42 52.03919 -8.60715 2733 ft 141 kts 150°
2026-04-22 08:42 52.03001 -8.60193 2722 ft 141 kts 152°
2026-04-22 08:42 52.02067 -8.59686 2712 ft 141 kts 151°
2026-04-22 08:42 52.01141 -8.59165 2731 ft 141 kts 150°
2026-04-22 08:43 52.00213 -8.58631 2718 ft 140 kts 150°
2026-04-22 08:43 51.99308 -8.58101 2711 ft 140 kts 150°
2026-04-22 08:43 51.98398 -8.57559 2707 ft 135 kts 150°
2026-04-22 08:43 51.97548 -8.57055 2705 ft 124 kts 149°
2026-04-22 08:44 51.96733 -8.56568 2722 ft 127 kts 149°
2026-04-22 08:44 51.95912 -8.56082 2720 ft 124 kts 149°
2026-04-22 08:44 51.95101 -8.55599 2627 ft 124 kts 149°
2026-04-22 08:44 51.94283 -8.55116 2469 ft 127 kts 148°
2026-04-22 08:45 51.93437 -8.54615 2292 ft 129 kts 148°
2026-04-22 08:45 51.92591 -8.54115 2112 ft 132 kts 148°
2026-04-22 08:45 51.91727 -8.53582 1919 ft 134 kts 146°
2026-04-22 08:45 51.90823 -8.53064 1737 ft 140 kts 149°
2026-04-22 08:46 51.90214 -8.52707 1623 ft 140 kts 148°
2026-04-22 08:46 51.89307 -8.52174 1407 ft 137 kts 148°
2026-04-22 08:46 51.88408 -8.51643 1210 ft 136 kts 148°
2026-04-22 08:46 51.87518 -8.51117 1042 ft 141 kts 149°
2026-04-22 08:47 51.86280 -8.50383 787 ft 142 kts 147°
2026-04-22 08:47 51.85678 -8.49996 664 ft 139 kts 146°
2026-04-22 08:47 51.84746 -8.49521 492 ft 136 kts 144°
2026-04-22 08:47 51.84207 -8.49066 472 ft 70 kts 151°